Location: Trebic
(49.2170°N, 15.8830°E)
Time: 21:33:48
(UTC+02:00)

Courier 1B Rocket - Pass Details

Date: 31 August 2019
Orbit: 920 x 1202 km, 28.2° (Epoch: 22 September)

Event Time Altitude Azimuth Distance (km) Brightness Sun altitude
Rises 02:52:22 0° 231° (SW) 3,723 - -26.7°
Reaches altitude 10° 02:56:56 10° 203° (SSW) 2,842 - -26.3°
Maximum altitude 02:59:31 12° 181° (S) 2,714 - -26.1°
Drops below altitude 10° 03:02:09 10° 159° (SSE) 2,922 - -25.8°
Exits shadow 03:04:14 - 145° (SE) 3,287 7.6 -25.6°
Sets 03:07:01 0° 131° (SE) 3,951 8.1 -25.4°
